Hourly Data Report for September 05, 2017

All times are specified in Local Standard Time (LST). Add 1 hour to adjust for Daylight Saving Time where and when it is observed.

ARCTIC BAY CS
NUNAVUT

72°59'34.000" N
85°00'44.000" W
10.00 m
2400404
71592
XAT

Download Data

Hourly Data (September 2017)
Hourly Data Report for September 5, 2017
Temp Definition
°C
Dew Point Temp Definition
°C
Rel Hum Definition
%
Wind Dir Definition
10's deg

Wind Spd Definition
km/h
Visibility Definition
km
Stn Press Definition
kPa
Hmdx Definition


Wind Chill Definition


Weather Definition


TIME
00:00 -0.6 -5.6 69 34 13   101.32   -5 LegendNANA
01:00 -0.7 -5.7 69 36 17   101.31   -6 LegendNANA
02:00 -0.7 -5.8 68 1 12   101.30   -5 LegendNANA
03:00 -1.3 -2.5 91 33 15   101.31   -6 LegendNANA
04:00 -1.2 -2.7 89 34 12   101.31   -5 LegendNANA
05:00 -1.2 -3.4 85 34 7   101.30   -4 LegendNANA
06:00 -1.3 -3.0 88 35 9   101.30   -5 LegendNANA
07:00 -0.5 -3.1 82 33 12   101.31   -4 LegendNANA
08:00 -0.8 -5.0 74 36 21   101.33   -6 LegendNANA
09:00 -0.8 -4.8 74 34 23   101.32   -7 LegendNANA
10:00 -0.7 -5.0 73 33 17   101.33   -6 LegendNANA
11:00 -0.7 -5.4 70 34 10   101.34   -4 LegendNANA
12:00 -0.5 -4.9 72 34 13   101.34   -5 LegendNANA
13:00 -0.4 -3.8 78 32 18   101.33   -5 LegendNANA
14:00 -0.6 -4.9 73 33 17   101.36   -6 LegendNANA
15:00 -0.7 -5.0 73 33 13   101.35   -5 LegendNANA
16:00 -0.5 -4.7 73 33 15   101.35   -5 LegendNANA
17:00 -0.4 -4.8 72 31 16   101.33   -5 LegendNANA
18:00 -0.6 -4.9 73 32 20   101.33   -6 LegendNANA
19:00 -0.7 -4.9 74 33 15   101.31   -5 LegendNANA
20:00 -0.8 -5.5 71 32 16   101.30   -6 LegendNANA
21:00 -0.9 -5.7 70 29 18   101.29   -6 LegendNANA
22:00 -1.2 -5.1 75 31 20   101.29   -7 LegendNANA
23:00 -1.7 -6.1 72 35 11   101.26   -6 LegendNANA

Notes on Data Quality.

Legend

  • E = Estimated
  • M = Missing
  • NA = Not Available
  • ‡ = Partner data that is not subject to review by the National Climate Archives
Date modified: